Showing default

CENTISPACE-1 S13, 62582

Orbit data source: Space-Track

CENTISPACE-1 S13, 62582 is a payload satellite owned by Centispace (CN) in LEO that was launched on Mon, 13 Jan 2025 UTC via a JIELONG-3 launch vehicle from the Yellow Sea Launch Area, China (YSLA). Payloads include a variety of satellites, spacecraft, and rockets equipped with specific instruments for various scientific and technological missions. These include communications satellites like Starlink; space stations such as the ISS; scientific satellites like the Hubble; Earth observation satellites from companies like Planet Labs, Umbra, and HawkEye 360; GPS; miniature CubeSats for education and research; and military/defense satellites.

Loading next visibility...
CENTISPACE-1 S13 details
Identifier
62582, 2025-007H
Orbit
LEO
Last TLE update9 hours ago
Origin
Flag of CNCentispace (CN / PRC)
ManufacturerDFH Shenzhen
MissionOperational spacecraft
Bus & MotorWK01, Unknown motor
Mass160 kg wet, 160 kg dry
Launch date (UTC)
2025-01-13 (3 weeks ago)
Launch vehicle
JIELONG-3
Launch site
Yellow Sea Launch Area, China (YSLA)
Object type
Payload
Rocket body
Debris
Shape & HBRUnknown
Radar Cross SectionMedium (>0.1 m² and <1 m²)

Expand to show TLE details & history

TLE from 9 hours ago
0 CENTISPACE-1 S13
1 62582U 25007H   25035.78515191  .00003869  00000-0  57163-3 0  9990
2 62582  54.9842  35.5917 0016078 354.2146   5.8666 14.77133974  3341
Epoch: 2025-02-04T18:50Z
Definitive object data (Epoch: 2025-02-04T18:50:37.125Z)
Latitude-0.00001°
Longitude-22.24846°
Altitude628.232 km
Speed7.551 km/s
True Right ascension02h 22m 22s
True Declination0° 00' 00"
Sunlit
Object was in daylight at TLE epoch
Visualization TLE readout
Latitude-55.03885°
Longitude-109.1298°
Altitude656.282 km
Speed7.53 km/s
Apparent Right ascension19h 17m 08s
Apparent Declination-49° 01' 57"
Sunlit
Object is in daylight
Visualization observer readout
Local Sidereal Time06:13:29
Azimuth225.842° WSW
Elevation-75.488°
Doppler factor1
Orbital elements
Apogee altitude649.632 km
Perigee altitude627.07 km
Semi-major axis7,016.488 km
Eccentricity0.0016078
Inclination54.9842°
RAAN35.5917°
Arg. of periapsis354.2146°
True anomaly5.88547°
Mean anomaly5.8666°
Eccentric anomaly5.87603°
Mean motion3.69287 °/min
BSTAR0.00057163
Orbital period97.49 mins
Loading maneuver chart data...
Loading historical data...
Loading historical data...
Loading historical data...
Loading historical data...
Loading historical data...
Loading historical data...
Loading historical data...

CENTISPACE-1 S13 Visibility forecast

Observer location: undefined°, undefined

Span
Click to sort rows by Start time (UTC) header in descending order
Start Az.
Max El. time (UTC)
Max El. Az.
Max El.
End time (UTC)
End Az.
5 mins2025-02-05 04:52:40.999Z305.595° NW2025-02-05 04:55:40.999Z347.473° N15.477°2025-02-05 04:57:40.999Z15.454° NNE
6 mins2025-02-05 08:18:40.999Z343.206° N2025-02-05 08:21:40.999Z37.755° NE23.279°2025-02-05 08:24:40.999Z81.688° E
7 mins2025-02-05 09:59:40.999Z305.302° NW2025-02-05 10:02:40.999Z249.576° W42.256°2025-02-05 10:06:40.999Z146.304° SSE
7 mins2025-02-06 01:51:40.999Z207.516° SW2025-02-06 01:54:40.999Z155.891° SSE39.581°2025-02-06 01:58:40.999Z56.521° ENE
5 mins2025-02-06 03:34:40.999Z290.851° WNW2025-02-06 03:36:40.999Z330.586° NNW24.847°2025-02-06 03:39:40.999Z22.228° NNE
|